Regional Weather Roundup
Issued by NWS

Home | Current Version | Previous Version | Graphics & Text | Print | Product List | Glossary On
Versions: 1 2 3 4 5 6 7 8 9 10 11 12 13 14 15 16 17 18 19 20 21 22 23 24 25 26 27 28 29 30 31 32 33 34 35 36 37 38 39 40 41 42 43 44 45 46 47 48 49 50
000
ASUS43 KDTX 280810
RWRMI
MICHIGAN HOURLY REGIONAL WEATHER ROUNDUP
NATIONAL WEATHER SERVICE DETROIT/PONTIAC MI
400 AM EDT MON JUL 28 2014

NOTE: "FAIR" INDICATES FEW OR NO CLOUDS BELOW 12,000 FEET WITH NO
SIGNIFICANT WEATHER AND/OR OBSTRUCTION TO VISIBILITY.

MIZ047>049-052>055-059>063-066>070-074>076-081>083-280900-
SOUTHEAST LOWER MICHIGAN

CITY           SKY/WX    TMP DP  RH WIND       PRES   REMARKS
ADRIAN         MOCLDY    61  58  90 N9        29.76S
ALMA           CLEAR     60  58  92 NW8       29.82R
ANN ARBOR      CLOUDY    62  58  86 NW8       29.73S
BAD AXE        CLOUDY    61  59  91 N13G21    29.75R
DETROIT CITY   LGT RAIN  65  59  81 NW7       29.69R
DETROIT        CLOUDY    62  59  90 W9        29.71S
FLINT          CLOUDY    63  59  87 N16       29.75R
GROSSE ILE     PTCLDY    63  59  88 W7        29.69S
HILLSDALE      CLOUDY    62  62  97 NW14      29.78S
HOWELL         RAIN      61  60  95 N13G24    29.75R

CITY           SKY/WX    TMP DP  RH WIND       PRES   REMARKS
JACKSON        CLOUDY    62  59  90 NW8       29.77S
LAMBERTVILLE   MOCLDY    61  57  88 NW5       29.74S
LANSING        CLOUDY    62  59  90 N10       29.80R
LAPEER         NOT AVBL
MASON          DRIZZLE   61  59  92 N10G18    29.78R
MONROE         PTCLDY    61  57  88 W7        29.71R
MT. CLEMENS    CLOUDY    63  61  94 NW8       29.67S
PORT HOPE        N/A     64  56  75 N22G32    29.74R
PORT HURON     RAIN      61  61 100 NW7       29.67S
TRI CITIES     CLOUDY    63  58  83 N14       29.80R
YPSILANTI      MOCLDY    65  59  81 NW15      29.72R
$$
MIZ043>046-050>051-056>058-064>065-071>073-077>080-280900-
SOUTHWEST LOWER MICHIGAN

CITY           SKY/WX    TMP DP  RH WIND       PRES   REMARKS
BATTLE CREEK   MOCLDY    63  59  87 NW10      29.82S
BENTON HARBOR  MOCLDY    60  56  86 VRB6      29.86R
BIG RAPIDS     PTCLDY    57  57 100 NW6       29.86R
COLDWATER      CLOUDY    64  61  90 NW7       29.80S
HOLLAND        CLOUDY    63  56  78 NW7       29.86R
GRAND RAPIDS   CLOUDY    63  60  90 NW12      29.84R
KALAMAZOO      CLOUDY    64  59  83 N13       29.82S
MARSHALL       CLOUDY    61  59  93 NW7       29.79S
MUSKEGON       CLEAR     61  52  72 N12       29.88R
$$
MIZ016>042-280900-
NORTHERN LOWER MICHIGAN

CITY           SKY/WX    TMP DP  RH WIND       PRES   REMARKS
ALPENA         CLOUDY    59  52  77 N12       29.84R
BEAVER ISLAND  CLEAR     53  49  89 N7        29.93R
BELLAIRE       PTCLDY    58  52  81 N6        29.88S
CADILLAC       CLEAR     55  54  99 NW7       29.87R
CHARLEVOIX     MOCLDY    58  55  88 N12       29.93R
FRANKFORT      SUNNY     57  51  80 N10G17    29.92R
GAYLORD        CLOUDY    56  51  84 NE8       29.87S
GRAYLING       MOCLDY    56  53  88 N6        29.87S
HARBOR SPRINGS CLEAR     56  51  83 N6        29.89R
HOUGHTON LAKE  CLEAR     57  53  86 N9        29.85R
MANISTEE       CLEAR     57  52  82 N9        29.91R
OSCODA         CLOUDY    61  53  74 N20G28    29.80R
PELLSTON       CLEAR     55  50  83 N7        29.90R
TRAVERSE CITY  CLOUDY    62  54  74 N10G17    29.88R
$$
MIZ007>008-015-280900-
EASTERN UPPER MICHIGAN

CITY           SKY/WX    TMP DP  RH WIND       PRES   REMARKS
KINROSS        CLEAR     52  46  82 N5        29.91R
MACKINAC ISLAN CLEAR     53  51  92 N12       29.89S
NEWBERRY       CLEAR     45  42  90 N6        29.95R
S. S. MARIE    CLEAR     52  43  71 N6        29.92R
$$
MIZ004>006-011>014-085-280900-
CENTRAL UPPER MICHIGAN

CITY           SKY/WX    TMP DP  RH WIND       PRES   REMARKS
MANISTIQUE     CLEAR     46  43  89 NW8       29.96S
ESCANABA       CLEAR     48  41  76 N7        30.00S
MENOMINEE      CLEAR     52  43  71 N8        30.00S
SAWYER-GWINN   CLEAR     45  42  89 N6        30.03S
$$
MIZ001>003-009>011-084-280900-
WESTERN UPPER MICHIGAN

CITY           SKY/WX    TMP DP  RH WIND       PRES   REMARKS
IRON MOUNTAIN  CLEAR     49  44  83 N3        30.03R
COPPER HARBOR    N/A     50  46  86 W5        30.04S
IRONWOOD       CLEAR     45  45 100 CALM      30.09R
$$

ABBREVIATIONS USED IN REMARKS
   TC - TEMPERATURE IN CELSIUS
  WCI - WIND CHILL INDEX
   HX - HEAT INDEX
  VSB - VISIBILITY




USA.gov is the U.S. government's official web portal to all federal, state and local government web resources and services.